Simultaneous Nadir Overpasses (SNOs) Predictions

Prediction of SNOs between FY3D and AQUA Satellite Orbit:

Table of predicted SNOs for the next 14.0 days since TLE Epoch: 7/2/2022
Index Date (FY3D) Time (FY3D) Lat,Lon (FY3D) SZA (FY3D ) Date (AQUA) Time (AQUA) Lat,Lon (AQUA) SZA (AQUA ) Distance(km) Time Diff (sec)
1 07/02/2022 19:22:49 76.05,-121.57 53.32 07/02/2022 19:23:16 76.04,-121.53 53.30 1.26 27
2 07/02/2022 20:13:11 -75.00, 49.06 127.87 07/02/2022 20:12:20 -74.99, 49.11 127.88 1.86 51
3 07/05/2022 09:59:19 76.56, 17.50 54.16 07/05/2022 10:00:31 76.56, 17.52 54.14 0.57 72
4 07/05/2022 10:49:44 -75.68,-172.07 126.88 07/05/2022 10:49:38 -75.67,-172.03 126.88 1.21 6
5 07/08/2022 01:26:14 -76.20, -32.92 125.99 07/08/2022 01:26:53 -76.20, -32.92 126.00 0.19 39
6 07/08/2022 02:16:42 75.33, 137.28 53.01 07/08/2022 02:16:02 75.32, 137.36 53.00 2.56 40
7 07/10/2022 16:53:10 75.78, -83.19 53.84 07/10/2022 16:53:15 75.78, -83.20 53.84 0.26 5
8 07/10/2022 17:43:33 -74.77, 87.18 127.30 07/10/2022 17:42:20 -74.76, 87.23 127.30 1.70 73
9 07/13/2022 07:29:43 76.49, 55.25 55.04 07/13/2022 07:30:32 76.48, 55.32 55.01 2.28 49
10 07/13/2022 08:20:00 -75.23,-133.20 126.43 07/13/2022 08:19:32 -75.23,-133.26 126.41 1.86 28
11 07/15/2022 22:56:35 -76.00, 5.27 125.13 07/15/2022 22:56:51 -76.00, 5.26 125.14 0.16 16



Historial Predications of SNOs between FY3D and AQUA
